When you browse on this site, cookies collect data to enhance your experience and personalize the content and advertising you see.
Visit our Privacy Policy to learn more. By continuing to use the site, you agree to this use of cookies and data.
  • In Deutschland
  • Länderverzeichnis
  • Für 7 Tage
  • Wassertemperatur
  • Wetterkarte
  • Widgets
  • user-avatar
    Anmelden

    Stündliche Wetter Truto

    Heute, 23 September, Montag

    Zeit Temperatur Niederschläge Wind Luftdruck Luftfeuchtigkeit
    00:00 +13°C° 0 mm 5 m/S 753 mmHg 92%
    01:00 +13°C° 0 mm 5 m/S 753 mmHg 93%
    02:00 +13°C° 0 mm 5 m/S 753 mmHg 93%
    03:00 +12°C° 0 mm 5 m/S 753 mmHg 93%
    04:00 +13°C° 0 mm 5 m/S 753 mmHg 93%
    05:00 +13°C° 0 mm 6 m/S 753 mmHg 93%
    06:00 +14°C° 0 mm 6 m/S 753 mmHg 93%
    07:00 +14°C° 0.2 mm 7 m/S 753 mmHg 92%
    08:00 +15°C° 0.2 mm 8 m/S 753 mmHg 90%
    09:00 +15°C° 0.2 mm 9 m/S 753 mmHg 89%
    10:00 +14°C° 1.4 mm 10 m/S 752 mmHg 91%
    11:00 +14°C° 1.4 mm 11 m/S 752 mmHg 93%
    12:00 +14°C° 1.4 mm 12 m/S 751 mmHg 95%
    13:00 +16°C° 1.1 mm 11 m/S 751 mmHg 95%
    14:00 +16°C° 1.1 mm 10 m/S 751 mmHg 95%
    15:00 +16°C° 1.1 mm 10 m/S 751 mmHg 94%
    16:00 +17°C° 0.1 mm 9 m/S 750 mmHg 95%
    17:00 +17°C° 0.1 mm 8 m/S 750 mmHg 95%
    18:00 +17°C° 0.1 mm 7 m/S 750 mmHg 95%
    19:00 +17°C° 0 mm 7 m/S 750 mmHg 95%
    20:00 +16°C° 0 mm 7 m/S 750 mmHg 96%
    21:00 +16°C° 0 mm 7 m/S 750 mmHg 96%
    22:00 +16°C° 0.8 mm 7 m/S 750 mmHg 96%
    23:00 +16°C° 0.8 mm 7 m/S 749 mmHg 96%

    Morgen, 24 September, Dienstag

    Zeit Temperatur Niederschläge Wind Luftdruck Luftfeuchtigkeit
    00:00 +17°C° 0.8 mm 8 m/S 749 mmHg 96%
    01:00 +16°C° 1.9 mm 8 m/S 748 mmHg 96%
    02:00 +16°C° 1.9 mm 8 m/S 748 mmHg 96%
    03:00 +16°C° 1.9 mm 8 m/S 747 mmHg 96%
    04:00 +16°C° 2 mm 7 m/S 747 mmHg 95%
    05:00 +15°C° 2 mm 7 m/S 747 mmHg 94%
    06:00 +15°C° 2 mm 6 m/S 747 mmHg 92%
    07:00 +15°C° 0 mm 7 m/S 747 mmHg 89%
    08:00 +16°C° 0 mm 7 m/S 747 mmHg 86%
    09:00 +16°C° 0 mm 8 m/S 748 mmHg 84%
    10:00 +16°C° 0 mm 8 m/S 748 mmHg 80%
    11:00 +16°C° 0 mm 9 m/S 748 mmHg 77%
    12:00 +17°C° 0 mm 9 m/S 749 mmHg 74%
    13:00 +16°C° 0.2 mm 9 m/S 749 mmHg 77%
    14:00 +15°C° 0.2 mm 9 m/S 749 mmHg 81%
    15:00 +15°C° 0.2 mm 9 m/S 749 mmHg 84%
    16:00 +14°C° 0.1 mm 10 m/S 748 mmHg 85%
    17:00 +13°C° 0.1 mm 10 m/S 748 mmHg 85%
    18:00 +13°C° 0.1 mm 10 m/S 748 mmHg 86%
    19:00 +13°C° 0.4 mm 11 m/S 748 mmHg 88%
    20:00 +13°C° 0.4 mm 11 m/S 748 mmHg 90%
    21:00 +14°C° 0.4 mm 12 m/S 748 mmHg 91%
    22:00 +14°C° 0.5 mm 12 m/S 748 mmHg 91%
    23:00 +14°C° 0.5 mm 12 m/S 748 mmHg 90%

    übermorgen, 25 September, Mittwoch

    Zeit Temperatur Niederschläge Wind Luftdruck Luftfeuchtigkeit
    00:00 +14°C° 0.5 mm 12 m/S 747 mmHg 89%
    01:00 +14°C° 0.1 mm 12 m/S 747 mmHg 88%
    02:00 +14°C° 0.1 mm 12 m/S 748 mmHg 88%
    03:00 +14°C° 0.1 mm 12 m/S 748 mmHg 87%
    04:00 +14°C° 0 mm 11 m/S 748 mmHg 88%
    05:00 +14°C° 0 mm 10 m/S 748 mmHg 89%
    06:00 +15°C° 0 mm 9 m/S 748 mmHg 90%
    07:00 +15°C° 0.1 mm 9 m/S 749 mmHg 91%
    08:00 +15°C° 0.1 mm 8 m/S 749 mmHg 91%
    09:00 +15°C° 0.1 mm 7 m/S 750 mmHg 92%
    10:00 +16°C° 0.1 mm 7 m/S 750 mmHg 91%
    11:00 +16°C° 0.1 mm 7 m/S 750 mmHg 90%
    12:00 +16°C° 0.1 mm 7 m/S 751 mmHg 89%
    13:00 +17°C° 0 mm 7 m/S 750 mmHg 88%
    14:00 +17°C° 0 mm 7 m/S 750 mmHg 88%
    15:00 +17°C° 0 mm 7 m/S 750 mmHg 88%
    16:00 +17°C° 0 mm 7 m/S 750 mmHg 90%
    17:00 +17°C° 0 mm 7 m/S 750 mmHg 92%
    18:00 +16°C° 0 mm 8 m/S 750 mmHg 94%
    19:00 +16°C° 0.1 mm 8 m/S 750 mmHg 94%
    20:00 +16°C° 0.1 mm 9 m/S 750 mmHg 94%
    21:00 +16°C° 0.1 mm 9 m/S 750 mmHg 94%
    22:00 +16°C° 0.2 mm 9 m/S 749 mmHg 94%
    23:00 +16°C° 0.2 mm 10 m/S 749 mmHg 94%

    26 September, Donnerstag

    Zeit Temperatur Niederschläge Wind Luftdruck Luftfeuchtigkeit
    00:00 +16°C° 0.2 mm 10 m/S 749 mmHg 93%
    01:00 +16°C° 0.6 mm 10 m/S 749 mmHg 94%
    02:00 +16°C° 0.6 mm 10 m/S 749 mmHg 94%
    03:00 +16°C° 0.6 mm 10 m/S 749 mmHg 95%
    04:00 +15°C° 0.8 mm 9 m/S 749 mmHg 94%
    05:00 +15°C° 0.8 mm 7 m/S 749 mmHg 93%
    06:00 +14°C° 0.8 mm 6 m/S 749 mmHg 92%
    07:00 +15°C° 0.1 mm 7 m/S 749 mmHg 88%
    08:00 +15°C° 0.1 mm 7 m/S 750 mmHg 84%
    09:00 +15°C° 0.1 mm 8 m/S 750 mmHg 81%
    10:00 +16°C° 0.1 mm 9 m/S 750 mmHg 79%
    11:00 +16°C° 0.1 mm 9 m/S 751 mmHg 77%
    12:00 +16°C° 0.1 mm 10 m/S 751 mmHg 75%
    13:00 +16°C° 0.2 mm 10 m/S 751 mmHg 77%
    14:00 +16°C° 0.2 mm 10 m/S 751 mmHg 80%
    15:00 +14°C° 0.2 mm 10 m/S 751 mmHg 82%
    16:00 +14°C° 0.1 mm 10 m/S 751 mmHg 82%
    17:00 +15°C° 0.1 mm 9 m/S 751 mmHg 83%
    18:00 +15°C° 0.1 mm 9 m/S 751 mmHg 83%
    19:00 +13°C° 0.5 mm 9 m/S 751 mmHg 84%
    20:00 +13°C° 0.5 mm 9 m/S 752 mmHg 85%
    21:00 +13°C° 0.5 mm 9 m/S 752 mmHg 86%
    22:00 +13°C° 0.4 mm 9 m/S 752 mmHg 86%
    23:00 +12°C° 0.4 mm 9 m/S 751 mmHg 86%

    27 September, Freitag

    Zeit Temperatur Niederschläge Wind Luftdruck Luftfeuchtigkeit
    00:00 +12°C° 0.4 mm 9 m/S 751 mmHg 86%
    01:00 +12°C° 0.2 mm 9 m/S 751 mmHg 85%
    02:00 +12°C° 0.2 mm 9 m/S 751 mmHg 85%
    03:00 +12°C° 0.2 mm 10 m/S 751 mmHg 84%
    04:00 +12°C° 0.2 mm 10 m/S 751 mmHg 85%
    05:00 +12°C° 0.2 mm 9 m/S 751 mmHg 85%
    06:00 +12°C° 0.2 mm 9 m/S 751 mmHg 86%
    07:00 +12°C° 0.2 mm 10 m/S 751 mmHg 83%
    08:00 +13°C° 0.2 mm 10 m/S 751 mmHg 80%
    09:00 +14°C° 0.2 mm 10 m/S 751 mmHg 77%
    10:00 +14°C° 0.1 mm 11 m/S 751 mmHg 76%
    11:00 +14°C° 0.1 mm 11 m/S 752 mmHg 74%
    12:00 +14°C° 0.1 mm 11 m/S 752 mmHg 73%
    13:00 +14°C° 0.2 mm 11 m/S 751 mmHg 74%
    14:00 +14°C° 0.2 mm 12 m/S 751 mmHg 75%
    15:00 +14°C° 0.2 mm 12 m/S 751 mmHg 75%
    16:00 +14°C° 0.1 mm 11 m/S 751 mmHg 76%
    17:00 +13°C° 0.1 mm 11 m/S 751 mmHg 77%
    18:00 +13°C° 0.1 mm 11 m/S 751 mmHg 79%
    19:00 +13°C° 0.2 mm 11 m/S 751 mmHg 79%
    20:00 +13°C° 0.2 mm 11 m/S 752 mmHg 80%
    21:00 +13°C° 0.2 mm 11 m/S 752 mmHg 81%
    22:00 +13°C° 0.2 mm 11 m/S 752 mmHg 82%
    23:00 +13°C° 0.2 mm 11 m/S 752 mmHg 83%

    28 September, Samstag

    Zeit Temperatur Niederschläge Wind Luftdruck Luftfeuchtigkeit
    00:00 +13°C° 0.2 mm 11 m/S 752 mmHg 84%
    01:00 +13°C° 0.2 mm 11 m/S 752 mmHg 84%
    02:00 +13°C° 0.2 mm 11 m/S 752 mmHg 83%
    03:00 +13°C° 0.2 mm 11 m/S 752 mmHg 83%
    04:00 +13°C° 0.3 mm 11 m/S 752 mmHg 84%
    05:00 +13°C° 0.3 mm 11 m/S 753 mmHg 84%
    06:00 +13°C° 0.3 mm 11 m/S 753 mmHg 84%
    07:00 +13°C° 0.3 mm 11 m/S 753 mmHg 84%
    08:00 +13°C° 0.3 mm 10 m/S 753 mmHg 84%
    09:00 +13°C° 0.3 mm 10 m/S 754 mmHg 83%
    10:00 +14°C° 0.2 mm 10 m/S 754 mmHg 82%
    11:00 +14°C° 0.2 mm 10 m/S 754 mmHg 81%
    12:00 +16°C° 0.2 mm 10 m/S 755 mmHg 80%
    13:00 +14°C° 0.2 mm 10 m/S 754 mmHg 81%
    14:00 +14°C° 0.2 mm 10 m/S 754 mmHg 81%
    15:00 +14°C° 0.2 mm 10 m/S 754 mmHg 82%
    16:00 +13°C° 0 mm 9 m/S 754 mmHg 83%
    17:00 +13°C° 0 mm 8 m/S 754 mmHg 84%
    18:00 +12°C° 0 mm 7 m/S 754 mmHg 85%
    19:00 +12°C° 0.1 mm 7 m/S 754 mmHg 86%
    20:00 +13°C° 0.1 mm 6 m/S 754 mmHg 86%
    21:00 +13°C° 0.1 mm 5 m/S 754 mmHg 87%
    22:00 +13°C° 2.2 mm 5 m/S 752 mmHg 91%
    23:00 +13°C° 2.2 mm 6 m/S 751 mmHg 94%
    Mehr zeigen